Location: Rochester
(43.1610°N, 77.6109°W)
Time: 05:29:14
(UTC-04:00)

M-CUBED/EXP-1 PRIME - Visible Passes

Search period start: 28 October 2021 00:00
Search period end: 07 November 2021 00:00
Orbit: 427 x 655 km, 101.7° (Epoch: 27 October)

Date Brightness Start Highest point End Pass type
(mag) Time Alt. Az. Time Alt. Az. Time Alt. Az.
28 Oct ? 05:47:03 10° ENE 05:49:05 14° E 05:51:10 10° SE visible
29 Oct ? 05:40:51 10° E 05:41:52 11° E 05:42:52 10° ESE visible
30 Oct ? 07:05:08 10° NNE 07:09:04 86° WNW 07:13:17 10° SSW visible
31 Oct ? 06:57:56 10° NNE 07:01:54 75° ESE 07:06:08 10° SSW visible
01 Nov ? 06:50:45 10° NNE 06:54:42 58° ESE 06:58:55 10° S visible
02 Nov ? 06:43:36 10° NNE 06:47:30 45° ESE 06:51:37 10° S visible
03 Nov ? 06:36:29 10° NE 06:40:16 36° ESE 06:44:15 10° S visible
03 Nov ? 18:58:34 10° WSW 18:59:04 10° W 18:59:33 10° W visible
04 Nov ? 06:29:23 10° NE 06:33:01 29° ESE 06:36:47 10° SSE visible
04 Nov ? 18:49:58 10° SW 18:51:43 14° W 18:53:29 10° WNW visible
05 Nov ? 06:22:22 10° NE 06:25:44 23° E 06:29:14 10° SSE visible
05 Nov ? 18:42:02 10° SW 18:44:21 18° W 18:46:45 10° NW visible
06 Nov ? 06:15:24 10° NE 06:18:26 19° E 06:21:34 10° SE visible
06 Nov ? 18:34:17 10° SSW 18:37:00 23° W 18:39:49 10° NW visible
